Powrót do katalogu

HULIANWANG DIGUI-19

AktywnyŁącznośćLEO
NORAD 62979·PAYLOAD·🇨🇳 China

Wystrzelony Feb 11, 2025 z Wenchang Space Launch Site

Loading…

Następne Przeloty (najbliższe 24 godziny)

TLE

ŚwieżeSource: Space-Track

Epoka: Sep 14, 2026, 21:35 UTC

1 62979U 25030J   26257.89975123 -.00000101  00000-0  50576-4 0  9999
2 62979  50.0043 274.0253 0000473  16.1106 343.9781 13.29321375 77790

Śledź HULIANWANG DIGUI-19 w czasie rzeczywistym z AllMySat

Download on the App Store